RH
2 2 1 1 1 2 2 2 2 3 3 3 4 6 8 9 10 11 9 9 11 12 12 13 14 13 13 14 15 16 20 24 25
2 2 1 1 1 2 2 2 2 2 3 3 4 5 5 7 9 10 10 9 8 10 10 12 12 13 13 14 15 16 19 21 26
32 2 2 2 2 2 2 2 2 2 2 2 4 6 7 6 5 6 8 8 8 8 9 10 12 12 13 14 14 17 16 21 26
43 42 2 2 2 2 2 2 2 2 2 2 3 3 3 2 2 3 3 4 5 6 7 8 9 11 11 11 12 15 17 19 24
13 16 14 2 2 2 2 2 2 2 2 2 2 2 2 2 2 2 2 2 2 3 4 5 6 8 10 10 12 14 16 17 25
16 8 6 6 2 2 2 2 2 2 2 2 2 2 2 2 2 2 2 2 2 2 3 3 4 5 8 7 10 11 14 15 20
18 17 9 8 7 2 2 2 2 2 2 2 2 2 2 2 2 2 2 2 2 3 3 3 3 3 5 7 9 12 13 16 18
17 19 18 8 24 11 2 2 2 2 2 2 3 2 2 2 2 2 2 2 2 3 4 4 4 3 3 5 6 9 10 12 15
14 24 20 18 7 7 6 2 2 2 2 2 3 3 3 2 2 2 2 2 2 3 4 4 4 4 4 4 5 8 10 13 14
15 14 18 21 18 8 4 4 2 2 2 3 3 3 3 3 2 3 3 2 3 3 5 6 6 7 5 5 6 8 9 9 11
54 21 13 17 21 18 10 4 3 2 2 3 3 3 3 3 3 3 3 2 3 4 6 7 7 9 8 7 8 12 11 10 12
64 54 28 14 16 20 19 12 4 3 3 3 3 3 3 3 3 3 3 3 3 4 8 11 11 13 10 8 9 11 11 10 10
63 62 52 35 15 15 18 20 14 9 5 3 3 3 3 3 3 3 2 3 5 8 13 14 13 13 12 12 14 18 15 14 12
47 45 54 50 38 19 14 16 20 17 14 11 8 6 4 4 4 4 7 9 13 16 17 16 15 14 14 14 17 19 16 15 14
90 58 37 50 49 44 26 15 14 18 20 18 17 16 15 13 14 14 16 17 18 19 17 14 14 15 16 15 20 20 16 16 17
97 96 94 47 46 43 50 33 16 14 15 18 19 19 19 19 19 18 18 18 18 16 14 14 15 19 18 18 24 18 16 17 19
95 97 97 95 67 42 42 52 50 27 18 15 15 17 18 18 18 18 17 16 15 13 13 15 20 25 25 27 24 15 16 18 19
93 91 95 97 94 91 69 35 44 54 46 27 17 15 15 16 16 15 14 13 12 12 13 20 25 30 32 30 16 14 18 19 14
56 92 91 94 97 95 92 82 65 49 48 53 35 25 21 17 16 15 14 13 13 15 21 28 33 36 35 23 14 16 18 18 11
23 53 67 87 94 97 96 88 94 88 41 34 56 54 49 48 36 28 24 23 28 34 35 38 41 39 26 13 14 18 19 14 10
Wind_Speed
13 14 21 24 24 22 21 19 18 16 14 13 11 9 7 5 5 4 3 2 3 3 5 7 9 11 13 14 16 17 16 17 19
14 15 20 24 25 24 22 20 19 18 16 14 11 10 8 7 6 5 3 4 4 4 5 6 8 9 11 13 14 15 16 17 17
14 15 18 23 25 25 24 22 21 18 16 15 13 12 10 9 7 6 6 6 5 5 5 6 8 9 10 11 13 14 14 15 15
18 15 18 22 25 26 25 24 22 20 18 16 14 12 11 9 7 7 7 7 6 6 5 7 8 9 9 11 13 13 14 14 14
19 19 21 22 25 27 27 26 24 23 20 18 16 14 12 9 8 8 8 7 7 7 6 8 9 9 10 9 12 13 14 13 12
21 20 23 24 27 28 29 28 27 26 23 21 19 17 14 12 11 10 10 9 9 8 7 8 9 10 9 10 11 13 14 15 12
25 24 23 24 27 30 31 31 29 28 26 25 23 21 18 16 14 13 12 12 11 10 9 10 10 10 11 11 10 12 13 14 15
29 27 26 25 25 31 32 32 31 30 29 28 26 25 21 19 18 16 15 14 13 13 11 11 12 12 12 12 12 13 14 14 15
33 31 30 27 27 27 32 32 32 31 30 30 29 28 25 24 21 19 18 17 15 15 13 13 13 13 14 14 14 14 16 15 16
35 35 32 31 30 29 29 32 33 33 32 31 32 30 28 27 25 22 21 20 18 18 16 15 15 15 16 16 15 16 17 18 18
35 35 36 35 34 33 30 30 33 34 34 33 32 33 32 29 28 26 23 23 21 20 18 18 17 17 18 18 17 17 18 19 20
42 38 36 37 38 37 35 31 31 31 34 34 33 34 35 33 31 29 27 26 24 22 21 20 20 19 20 19 19 20 21 22 22
47 45 40 39 40 40 39 35 34 32 31 32 34 35 36 35 33 31 28 25 24 23 23 22 22 22 22 22 22 22 23 24 24
48 47 46 44 42 42 43 40 38 36 35 33 31 31 31 31 29 28 27 25 25 26 26 25 24 25 24 23 24 24 25 26 26
52 49 48 48 46 44 44 43 41 40 39 38 35 33 34 32 31 30 28 28 28 28 28 27 26 26 26 25 26 27 27 27 28
53 56 53 50 49 46 46 46 45 43 42 41 39 36 37 36 34 34 33 31 31 30 30 30 29 28 28 28 29 28 28 29 30
55 53 56 57 53 48 48 46 46 45 44 42 42 41 40 39 37 36 36 35 34 34 33 32 32 31 30 31 32 31 31 32 31
54 57 55 54 60 61 51 48 49 46 45 46 46 44 41 40 41 39 39 38 37 36 35 34 35 35 34 33 33 33 33 33 33
58 57 59 58 53 59 60 53 45 46 47 47 46 45 44 42 44 43 41 40 38 38 37 36 37 37 36 35 35 34 34 35 35
61 57 53 64 61 57 58 64 60 50 46 47 47 46 45 43 44 43 43 44 42 41 39 38 39 38 38 37 36 35 35 37 35
Wind_Direction
204 204 198 196 192 191 190 187 188 193 198 198 195 200 199 180 164 179 187 233 276 332 351 5 19 25 29 27 29 27 30 32 35
217 210 207 203 200 198 198 196 198 201 204 203 201 207 204 207 199 201 214 232 251 284 315 339 353 3 15 18 23 22 23 22 32
226 219 217 211 208 205 205 205 205 208 210 206 203 214 215 219 218 225 234 247 243 269 298 315 326 335 350 3 9 13 14 21 23
233 230 226 222 215 213 213 213 213 212 214 213 208 213 219 223 223 230 243 248 260 269 287 298 305 316 330 349 352 358 358 13 16
232 234 229 223 224 221 220 219 219 221 219 220 219 219 221 226 236 242 250 255 264 269 280 289 295 298 313 331 342 344 346 352 5
224 231 235 229 223 224 223 224 223 224 224 225 226 227 230 233 240 249 256 259 260 265 274 283 291 293 298 310 324 328 332 336 350
227 227 235 235 230 227 225 224 227 227 227 226 230 231 230 235 240 245 253 254 258 264 272 280 287 287 289 292 303 314 320 322 328
232 227 230 235 236 231 229 227 227 228 229 229 229 236 235 238 244 245 250 254 256 259 265 275 282 283 283 284 291 298 303 312 318
232 230 229 231 236 235 232 231 231 230 232 234 232 234 238 238 242 247 252 252 253 257 263 270 275 279 281 281 284 295 299 299 308
238 235 232 230 232 236 234 233 232 233 232 233 238 237 238 242 244 245 250 252 249 252 256 264 268 274 276 278 281 287 294 296 299
243 238 236 234 233 232 232 233 234 233 235 235 238 242 242 243 245 249 247 251 248 247 251 258 263 270 273 276 278 284 288 290 292
239 241 240 237 237 236 233 231 234 234 234 237 238 241 243 245 245 247 250 248 247 246 249 255 260 266 270 270 273 280 284 287 288
235 235 238 239 237 239 238 233 233 233 234 235 237 240 244 245 247 249 246 241 243 247 251 255 259 262 264 266 271 279 282 286 288
235 237 235 235 237 238 239 237 236 236 234 233 234 237 241 244 241 239 240 240 242 248 251 255 257 261 265 266 269 276 279 282 284
233 235 234 235 234 236 239 237 236 238 238 236 234 236 240 241 243 243 243 244 246 251 257 257 256 261 265 264 268 273 277 280 281
241 236 234 232 235 235 236 238 236 236 239 239 239 237 240 241 243 245 245 246 250 252 256 258 258 261 264 264 268 271 274 277 278
249 245 238 233 230 234 236 238 240 238 239 240 240 240 241 243 243 245 248 249 250 252 251 254 260 261 262 264 268 267 272 274 276
235 244 246 244 238 232 232 234 238 239 239 239 241 240 240 244 245 245 246 247 247 248 249 253 259 260 260 263 264 269 273 275 279
238 240 244 245 245 241 234 226 233 236 238 240 241 242 243 243 246 247 248 248 247 249 252 255 258 262 265 265 264 270 275 275 276
237 238 244 240 243 244 241 236 230 231 238 237 238 241 241 241 246 248 248 248 248 249 250 251 254 257 261 263 264 269 272 275 278